Flag for U.S.A. Weather past 2 weeks in Fort Worth, Texas, U.S.A.

Now
78 °F

Overcast.


Feels Like: 80 °F
Forecast: 75 / 93 °F
Wind: 6 mph from Northeast

Location: Meacham International Airport

Current Time: Jul 29, 2014 at 9:20:02 AM

Latest Report: Jul 29, 2014 at 8:53 AM


Visibility: 10 mi

Pressure: 30.12 "Hg

Humidity: 60%

Dew point: 63 °F

Location of Fort WorthLocation

Historic Weather in Fort Worth — Graph

°F

Fort Worth temperature yesterday

Maximum temperature yesterday: 95 °F (at 1:53 PM)
Minimum temperature yesterday: 79 °F (at 11:53 PM)
Average temperature yesterday: 87 °F

Past Weeks' High & Low Weather Summary

 TemperatureHumidityPressure
High103 °F (Jul 27, 4:53 PM)94% (Jul 17, 11:53 AM)30.11 "Hg (Jul 17, 11:53 AM)
Low65 °F (Jul 18, 6:53 AM)26% (Jul 15, 12:53 PM)29.83 "Hg (Jul 16, 6:53 PM)
Average83 °F60%29.97 "Hg
* Reported Jul 14 7:53 AM — Jul 29 7:53 AM, Fort Worth, Weather by CustomWeather, © 2014

Note: Actual official high and low records may vary slightly from our data, if they occured in-between our weather recording intervals... More about our weather records

Advertising

Fort Worth weather history for previous 24 hours

 ConditionsComfort  
Time TempWeatherWind HumidityBarometerVisibility
7:53 AM
Jul 29
78 °FOvercast.3 mph58%30.11 "Hg10 mi
6:53 AM78 °FOvercast.5 mph58%30.09 "Hg10 mi
5:53 AM77 °FOvercast.5 mph62%30.08 "Hg10 mi
4:53 AM77 °FOvercast.5 mph62%30.07 "Hg10 mi
3:53 AM79 °FMostly cloudy.5 mph58%30.07 "Hg10 mi
2:53 AM80 °FOvercast.7 mph54%30.07 "Hg10 mi
1:53 AM79 °FOvercast.5 mph58%30.07 "Hg10 mi
12:53 AM78 °FPassing clouds.8 mph62%30.08 "Hg10 mi
11:53 PM
Jul 28
79 °FClear.7 mph58%30.09 "Hg10 mi
10:53 PM81 °FClear.9 mph54%30.08 "Hg10 mi
9:53 PM82 °FClear.9 mph55%30.07 "Hg10 mi
8:53 PM84 °FSunny.9 mph49%30.05 "Hg10 mi
7:53 PM87 °FSunny.10 mph43%30.04 "Hg10 mi
6:53 PM90 °FSunny.10 mph34%30.04 "Hg10 mi
5:53 PM92 °FSunny.18 mph27%30.04 "Hg10 mi
4:53 PM93 °FSunny.17 mph30%30.07 "Hg10 mi
3:53 PM91 °FSunny.20 mph41%30.08 "Hg10 mi
2:53 PM95 °FPassing clouds.18 mph37%30.09 "Hg10 mi
1:53 PM95 °FScattered clouds.14 mph40%30.09 "Hg10 mi
12:53 PM94 °FSunny.16 mph43%30.10 "Hg10 mi
11:53 AM93 °FSunny.8 mph44%30.11 "Hg10 mi
10:53 AM91 °FSunny.9 mph49%30.11 "Hg10 mi
9:53 AM90 °FSunny.9 mph52%30.11 "Hg10 mi
Weather by CustomWeather, © 2014

See weather overviewHow to use our weather pages